Location: ????????
(55.8351°N, 38.7040°E)
Time: 13:49:35
(UTC+00:00)

Gbstr 26 Del rocket - Pass Details

Date: 14 April 2024
Orbit: 491 x 1240 km, 51.8° (Epoch: 26 May)

Event Time Altitude Azimuth Distance (km) Brightness Sun altitude
Exits shadow 00:33:02 21° 203° (SSW) 1,282 4.2 -14.0°
Maximum altitude 00:34:53 30° 159° (SSE) 971 3.9 -13.8°
Drops below altitude 10° 00:38:16 10° 97° (E) 1,720 6.0 -13.4°
Sets 00:40:31 0° 86° (E) 2,578 7.2 -13.2°
